Regional Weather Roundup
Issued by NWS Kansas City/Pleasant Hill, MO

Home | Current Version | Previous Version | Text Only | Print | Product List | Glossary On
Versions: 1 2 3 4 5 6 7 8 9 10 11 12 13 14 15 16 17 18 19 20 21 22 23 24 25 26 27 28 29 30 31 32 33 34 35 36 37 38 39 40 41 42 43 44 45 46 47 48 49 50
000
ASUS43 KEAX 270804
RWREAX

WEATHER ROUNDUP FOR EASTERN KANSAS AND NORTHWEST MISSOURI
NATIONAL WEATHER SERVICE KANSAS CITY/PLEASANT HILL MO
200 AM CST SAT DEC 27 2014

KSZ040-057-103>105-MOZ028-029-037-043-270900-
...KANSAS CITY METROPOLITAN AREA...

CITY           SKY/WX    TMP DP  RH WIND       PRES   REMARKS
K.C. INTL      CLOUDY    35  33  92 W17G23    30.07R WCI  25
K.C. DOWNTOWN  CLOUDY    38  33  82 W12       30.07R WCI  30
LEES SUMMIT    CLOUDY    37  34  89 W14G21    30.06R WCI  28
OLATHE - IXD   CLOUDY    35  33  92 W21       30.09R WCI  24
OLATHE - OJC   CLOUDY    36  33  89 W16G24    30.07R WCI  26
LAWRENCE       CLOUDY    34  31  88 W13       30.10R WCI  25

$$

MOZ001>008-011>017-020>025-030>033-038>040-044>046-053-054-270900-
...NORTHERN AND CENTRAL MISSOURI...

CITY           SKY/WX    TMP DP  RH WIND       PRES   REMARKS
ST. JOSEPH     CLOUDY    35  32  88 W12       30.08R WCI  27
MOSBY          CLOUDY    36  34  93 W9        30.05R WCI  29
WARRENSBURG    CLOUDY    39  37  93 W8        30.04R WCI  34
WHITEMAN AFB   NOT AVBL
CLINTON        CLOUDY    43  43 100 W16       30.04R FOG
SEDALIA        CLOUDY    52  49  89 SW9       29.99R
WARSAW         NOT AVBL
MARSHALL       CLOUDY    46  45  93 W8        30.00R FOG
CHILLICOTHE      N/A     39  36  89 W8        30.02R WCI  33
MOBERLY        CLOUDY    52  46  82 S10       29.97R
KIRKSVILLE     CLOUDY    43  43 100 CALM      29.94F FOG

$$

MOZ041-047>049-056>058-063>065-088>090-097-270900-
...EASTERN AND SOUTHERN MISSOURI...

CITY           SKY/WX    TMP DP  RH WIND       PRES   REMARKS
ST. LOUIS INTL CLOUDY    50  46  87 S9        30.05S
SPIRIT OF STL  CLOUDY    49  46  90 S9        30.04S
COLUMBIA       CLOUDY    50  47  89 S9        30.00R
JEFFERSON CITY CLOUDY    50  46  86 SE5       30.01R
MEXICO         CLOUDY    50 N/A N/A S13       29.99S
HANNIBAL       CLOUDY    52  45  76 S13       29.97S
ROLLA          CLOUDY    47  45  93 S13       30.01S
LEBANON        CLOUDY    50  48  93 S7        30.02S
OSAGE BEACH    CLOUDY    50  45  81 S8        30.01R
SPRINGFIELD    CLOUDY    50  49  96 S10       30.02R FOG
NEVADA         LGT RAIN  39  37  93 W9        30.09R WCI  33
JOPLIN         CLOUDY    40  39  97 MISG      30.09R FOG
WEST PLAINS    CLOUDY    47  46  97 S8        30.07S FOG

$$

IAZ060-094-KSZ022-034>040-054-083-096-NEZ052-066-093-270900-
...KANSAS...SOUTHEAST NEBRASKA AND IOWA...

CITY           SKY/WX    TMP DP  RH WIND       PRES   REMARKS
TOPEKA         CLOUDY    35  32  88 W14       30.11R WCI  26
MANHATTAN      CLOUDY    30  25  81 NW8       30.15R WCI  22
EMPORIA        CLOUDY    32  29  88 W14       30.10R WCI  22
CHANUTE        CLOUDY    36  31  82 W14       30.14R WCI  27
WICHITA        CLOUDY    32  24  72 NW17      30.15F WCI  21
OMAHA          CLOUDY    28  25  88 NW14      30.07R WCI  17
LINCOLN        FLURRIES  26  22  84 NW13      30.12R WCI  15
FALLS CITY     CLOUDY    33  30  88 W14       30.07R WCI  23
LAMONI         LGT SNOW  33  32  96 W8        29.98R FOG     WCI  26
DES MOINES     LGT SNOW  34  32  92 W7        29.96R FOG     WCI  28

$$



USA.gov is the U.S. government's official web portal to all federal, state and local government web resources and services.